Probability
8 12 24 43 65 82 91 95 97 98 99 96 89 81 72 57 39 28 24 21 19 17 16 14 10 6 3 2 1 0 0 0 0 0 0 0 0 0 0 0 0 0 0
18 20 28 43 62 79 90 96 98 99 97 92 84 73 57 38 21 14 12 11 10 9 8 6 4 3 1 1 0 0 0 0 0 0 0 0 0 0 0 0 0 0 0
37 32 31 39 54 71 86 94 98 98 93 86 75 61 42 21 8 3 2 2 2 2 1 1 0 0 0 0 0 0 0 0 0 0 0 0 0 0 0 0 0 0 0
56 47 41 45 54 67 82 92 97 95 89 81 70 55 37 19 7 2 0 0 0 0 0 0 0 0 0 0 0 0 0 0 0 0 0 0 0 0 0 0 0 0 0
66 62 63 67 71 79 87 93 94 89 80 71 62 48 32 16 6 1 0 0 0 0 0 0 0 0 0 0 0 0 0 0 0 0 0 0 0 0 0 0 0 0 0
67 72 80 84 86 89 92 90 83 72 60 51 44 34 21 9 2 0 0 0 0 0 0 0 0 0 0 0 0 0 0 0 0 0 0 0 0 0 0 0 0 0 0
59 65 74 78 78 77 76 70 59 46 35 30 25 18 10 3 0 0 0 0 0 0 0 0 0 0 0 0 0 0 0 0 0 0 0 0 0 0 0 0 0 0 0
36 41 47 51 52 50 46 40 31 22 16 13 9 6 3 1 0 0 0 0 0 0 0 0 0 0 0 0 0 0 0 0 0 0 0 0 0 0 0 0 0 0 0
13 15 19 22 22 22 20 18 13 8 5 3 2 1 1 0 0 0 0 0 0 0 0 0 0 0 0 0 0 0 0 0 0 0 0 0 0 0 0 0 0 0 0
2 3 4 4 5 5 5 5 4 2 0 0 0 0 0 0 0 0 0 0 0 0 0 0 0 0 0 0 0 0 0 0 0 0 0 0 0 0 0 0 0 0 0
0 0 0 0 0 0 0 0 0 0 0 0 0 0 0 0 0 0 0 0 0 0 0 0 0 0 0 0 0 0 0 0 0 0 0 0 0 0 0 0 0 0 0
0 0 0 0 0 0 0 0 0 0 0 0 0 0 0 0 0 0 0 0 0 0 0 0 0 0 0 0 0 0 0 0 0 0 0 0 0 0 0 0 0 0 0
0 0 0 0 0 0 0 0 0 0 0 0 0 0 0 0 0 0 0 0 0 0 0 0 0 0 0 0 0 0 0 0 0 0 0 0 0 0 0 0 0 0 0
0 0 0 0 0 0 0 0 0 0 0 0 0 0 0 0 0 0 0 0 0 0 0 0 0 0 0 0 0 0 0 0 0 0 0 0 0 0 0 0 0 0 0
0 0 0 0 0 0 0 0 0 0 0 0 0 0 0 0 0 0 0 0 0 0 0 0 0 0 0 0 0 0 0 0 0 0 0 0 0 0 0 0 0 0 0
0 0 0 0 0 0 0 0 0 0 0 0 0 0 0 0 0 0 0 0 0 0 0 0 0 0 0 0 0 0 0 0 0 0 0 0 0 0 0 0 0 0 0
0 0 0 0 0 0 0 0 0 0 0 0 0 0 0 0 0 0 0 0 0 0 0 0 0 0 0 0 0 0 0 0 0 0 0 0 0 0 0 0 0 0 0
0 0 0 0 0 0 0 0 0 0 0 0 0 0 0 0 0 0 0 0 0 0 0 0 0 0 0 0 0 0 0 0 0 0 0 0 0 0 0 0 0 0 0
0 0 0 0 0 0 0 0 0 0 0 0 0 0 0 0 0 0 0 0 0 0 0 0 0 0 0 0 0 0 0 0 0 0 0 0 0 0 0 0 0 0 0
0 0 0 0 0 0 0 0 0 0 0 0 0 0 0 0 0 0 0 0 0 0 0 0 0 0 0 0 0 0 0 0 0 0 0 0 0 0 0 0 0 0 0
0 0 0 0 0 0 0 0 0 0 0 0 0 0 0 0 0 0 0 0 0 0 0 0 0 0 0 0 0 0 0 0 0 0 0 0 0 0 0 0 0 0 0
0 0 0 0 0 0 0 0 0 0 0 0 0 0 0 0 0 0 0 0 0 0 0 0 0 0 0 0 0 0 0 0 0 0 0 0 0 0 0 0 0 0 0
0 0 0 0 0 0 0 0 0 0 0 0 0 0 0 0 0 0 0 0 0 0 0 0 0 0 0 0 0 0 0 0 0 0 0 0 0 0 0 0 0 0 0
0 0 0 0 0 0 0 0 0 0 0 0 0 0 0 0 0 0 0 0 0 0 0 0 0 0 0 0 0 0 0 0 0 0 0 0 0 0 0 0 0 0 0
0 0 0 0 0 0 0 0 0 0 0 0 0 0 0 0 0 0 0 0 0 0 0 0 0 0 0 0 0 0 0 0 0 0 0 0 0 0 0 0 0 0 0
0 0 0 0 0 0 0 0 0 0 0 0 0 0 0 0 0 0 0 0 0 0 0 0 0 0 0 0 0 0 0 0 0 0 0 0 0 0 0 0 0 0 0
Wind_Speed
8 9 14 15 16 15 15 15 15 14 12 9 9 8 6 4 4 3 4 4 4 5 5 6 6 5 4 4 4 4 4 3 2 2 2 2 2 2 2 3 2 1 1
6 6 9 14 16 16 16 16 15 14 13 10 8 6 7 5 5 4 4 4 5 5 5 7 6 5 4 4 4 3 2 2 1 2 2 3 5 5 4 3 4 3 4
9 7 7 10 14 16 16 14 15 14 13 12 9 9 7 5 4 4 3 4 5 5 4 5 6 5 4 4 4 4 3 3 2 1 3 4 5 2 6 5 5 5 5
9 7 4 6 9 12 13 13 13 13 13 13 12 12 8 7 5 5 5 6 6 6 5 5 6 5 5 5 5 4 3 3 3 3 0 3 5 5 3 6 7 7 8
8 7 5 2 2 5 8 10 12 12 12 12 13 11 9 8 7 8 9 7 6 7 7 6 6 6 6 6 6 5 3 2 1 2 2 1 2 4 6 7 6 6 7
8 8 9 9 8 8 9 11 13 12 11 11 10 10 12 11 11 10 10 8 6 6 8 8 7 7 7 7 6 5 5 4 3 1 1 2 3 5 6 8 9 9 8
8 9 11 11 11 11 11 12 13 12 11 10 9 10 10 11 12 11 11 9 7 6 7 7 7 7 7 7 6 5 5 4 2 1 2 3 5 5 7 9 10 11 10
10 11 11 11 11 12 12 12 13 12 11 10 10 9 9 8 8 11 11 10 8 8 8 8 7 8 7 6 5 4 3 2 1 2 3 5 5 6 7 8 10 12 12
10 10 11 11 11 12 12 12 13 12 11 11 11 10 10 11 12 12 12 10 9 9 9 9 8 7 6 5 3 3 2 1 2 2 3 5 6 6 7 8 9 11 14
10 10 10 11 11 11 12 13 13 13 12 12 10 10 12 12 13 12 12 11 10 9 9 8 7 6 5 4 2 3 2 1 2 3 5 6 7 7 8 8 8 9 12
9 9 10 10 11 11 12 12 12 13 12 12 12 13 12 12 12 11 11 10 9 9 8 8 7 6 5 4 3 2 1 3 4 5 6 7 8 8 8 9 9 9 10
9 10 10 11 11 12 12 12 12 13 12 13 13 13 12 12 12 12 11 10 9 9 8 7 7 6 5 3 2 2 3 4 5 6 7 8 7 9 10 8 10 10 10
10 10 10 11 11 11 12 12 12 13 13 13 14 13 13 13 13 12 11 11 10 9 8 7 6 5 4 3 2 3 4 5 6 7 8 9 9 10 9 10 10 9 10
9 10 10 10 10 11 11 12 12 12 13 13 14 13 13 13 12 11 11 10 9 8 7 6 4 3 2 2 3 4 5 6 7 8 8 9 9 9 10 9 10 11 11
10 10 9 9 10 10 11 11 12 11 12 13 13 13 12 12 11 10 10 9 8 7 5 4 3 2 2 5 7 6 6 7 8 8 8 8 8 10 9 10 12 12 11
10 10 10 10 10 10 10 10 11 10 11 12 12 11 11 10 10 9 8 7 6 5 4 3 2 2 5 8 8 9 9 8 9 9 8 8 8 7 11 13 14 16 15
10 10 9 9 9 8 9 10 10 10 11 11 11 10 10 9 8 7 6 5 4 4 3 3 3 4 7 5 6 8 11 10 8 8 8 8 8 10 10 12 16 16 16
10 10 9 9 9 9 9 10 10 10 10 10 9 8 8 8 7 6 6 4 3 3 3 3 4 3 6 5 6 11 11 8 8 8 9 9 10 8 11 14 15 15 14
10 9 9 9 9 9 9 10 10 10 10 9 8 7 7 7 6 6 5 4 4 3 3 3 3 3 5 5 5 11 9 6 9 9 8 9 10 8 11 14 14 14 13
9 9 9 10 9 9 9 10 10 9 9 8 7 7 6 6 6 6 5 4 3 2 2 3 3 3 3 4 3 10 8 7 8 8 8 6 6 11 13 13 12 12 13
10 10 10 9 8 8 8 10 9 9 8 8 8 7 7 6 6 5 4 3 2 3 3 3 2 2 3 2 1 7 8 8 9 8 7 6 7 12 14 14 11 12 15
10 10 9 9 8 7 9 9 8 8 8 8 8 7 6 5 6 5 4 3 2 1 2 3 3 3 2 3 4 6 8 9 10 8 7 8 12 15 16 12 10 15 14
10 9 10 9 8 7 8 8 8 8 7 7 7 6 6 5 4 3 2 1 2 3 3 4 4 5 5 2 2 6 8 9 9 8 9 12 14 15 11 7 12 11 7
9 8 9 9 8 7 7 7 7 6 6 6 5 4 4 4 3 1 2 3 4 4 4 4 5 5 5 5 7 8 8 8 7 8 9 10 10 9 9 9 7 6 6
8 8 8 8 8 7 6 5 5 4 4 3 3 2 2 2 1 1 3 4 5 6 6 7 6 6 7 8 11 9 8 9 9 11 8 7 8 8 8 9 8 7 7
9 8 8 8 7 7 6 5 4 3 3 2 2 1 1 1 1 1 2 4 3 4 1 3 6 6 6 9 10 10 11 12 12 10 6 7 7 8 8 9 9 9 8
Wind_Direction
249 226 213 211 205 199 196 195 195 186 181 176 172 167 154 117 85 71 75 88 99 117 131 129 129 126 118 119 131 127 127 125 151 185 209 217 245 261 245 255 257 186 269
295 258 227 212 208 203 199 194 193 184 180 174 164 151 122 109 105 90 85 98 110 125 143 141 138 133 130 139 154 156 156 128 171 252 247 234 208 213 222 229 232 261 265
319 298 249 226 212 205 200 195 188 179 174 157 137 123 120 112 108 115 115 117 130 141 148 147 137 141 149 150 156 156 153 139 134 316 276 276 279 192 188 224 242 250 273
332 324 290 228 215 206 195 189 179 169 159 152 147 147 143 137 147 146 142 136 126 122 121 119 117 117 118 123 128 113 125 147 152 144 342 340 344 302 274 211 222 237 256
354 1 10 38 163 177 176 166 151 145 145 145 146 144 144 141 141 139 134 122 106 99 98 101 106 112 109 104 103 106 111 143 154 152 165 177 218 258 281 293 290 268 260
29 42 52 64 75 92 107 115 120 122 128 134 140 143 143 142 140 138 130 117 104 99 104 111 113 111 109 109 110 113 103 82 78 34 298 282 291 295 300 293 288 289 288
47 56 62 68 75 84 95 106 112 114 119 121 121 129 136 141 141 136 124 121 116 114 118 117 116 112 112 114 116 113 108 119 130 268 301 307 302 306 301 297 298 299 295
57 59 61 67 74 81 89 100 105 106 107 109 110 115 119 119 118 119 122 122 120 118 120 115 113 115 118 117 117 126 132 141 221 295 316 299 297 311 304 304 304 299 296
62 61 61 64 70 75 80 89 94 95 96 99 102 105 107 110 114 118 120 118 119 122 121 119 114 113 113 118 149 118 136 161 282 300 301 306 315 300 304 302 298 299 300
67 62 60 63 66 70 75 79 85 89 93 97 99 101 104 110 115 116 112 114 115 115 118 114 113 114 116 125 141 128 90 11 351 333 329 316 312 317 300 295 294 292 292
70 65 63 64 69 72 76 81 84 87 89 92 96 98 100 104 105 106 109 110 111 115 115 115 114 113 113 112 103 70 48 337 334 323 320 313 314 305 309 301 294 293 296
74 73 74 75 75 78 80 83 86 89 91 94 95 96 100 102 103 103 104 105 104 103 105 107 107 107 105 97 78 41 358 340 331 326 318 312 312 308 297 302 301 302 301
82 80 78 77 78 80 82 85 87 91 95 97 98 97 99 100 100 102 102 101 99 95 93 95 99 101 98 85 48 5 347 335 327 322 317 314 310 304 306 306 300 299 297
89 86 83 81 81 83 85 88 89 91 95 97 97 97 97 98 97 95 92 92 92 93 94 97 101 101 86 52 14 350 339 329 323 318 312 307 307 306 308 302 301 302 303
95 90 89 88 87 87 86 87 90 93 97 98 96 95 94 92 92 91 90 90 92 98 104 106 101 84 68 37 9 341 331 326 318 314 310 306 308 300 299 305 309 308 303
104 101 97 94 91 92 95 96 96 99 101 100 99 98 96 92 90 91 92 93 96 100 98 83 69 53 62 62 22 339 326 317 312 315 314 306 288 297 292 284 292 296 294
107 102 98 96 98 101 106 106 105 104 101 101 100 100 100 99 100 104 105 108 110 101 81 58 50 71 86 52 3 339 312 307 314 314 309 308 317 307 309 312 305 293 282
103 100 101 101 102 103 104 107 107 106 104 102 102 107 111 114 119 118 115 112 98 81 71 54 40 46 87 51 356 326 295 302 311 308 304 305 308 323 334 318 306 302 301
98 99 102 106 107 108 112 113 111 111 111 111 115 121 124 124 122 113 105 92 85 77 65 52 25 17 92 69 351 323 308 312 313 311 310 307 308 349 331 311 304 306 307
98 102 105 106 105 108 115 115 113 111 112 117 118 115 111 108 102 96 90 86 81 66 35 47 18 1 30 92 346 326 312 321 317 315 311 303 332 329 317 311 306 307 315
102 104 102 99 100 107 111 109 110 115 120 119 112 105 101 97 94 92 85 79 67 50 26 19 12 16 11 105 76 332 325 329 318 313 315 329 348 321 311 303 301 311 309
102 101 99 98 98 106 113 116 120 125 125 119 109 102 97 93 99 100 92 71 29 54 30 15 1 4 8 2 5 315 302 302 308 311 321 333 329 312 301 299 309 306 301
104 105 109 110 118 129 134 127 129 132 128 118 107 103 102 99 98 100 97 81 23 8 9 5 360 356 351 351 300 303 300 289 301 317 316 306 300 299 297 295 298 300 316
112 119 121 122 122 127 124 122 128 132 129 121 115 117 119 126 115 51 24 15 12 8 5 2 355 347 342 352 351 342 334 327 319 325 314 299 290 298 315 314 314 326 337
126 126 119 112 108 107 104 110 120 133 133 131 129 132 119 88 104 78 29 1 36 29 350 354 353 349 346 1 341 324 329 331 333 323 317 338 345 343 341 336 336 336 337
119 111 105 98 94 92 88 87 99 119 136 152 156 154 127 85 318 320 146 121 54 116 131 333 334 347 3 335 325 320 316 313 311 313 339 346 342 336 332 330 333 337 342